Location: Hradec Kralove
(50.2170°N, 15.8330°E)
Time: 13:09:34
(UTC+02:00)

Explorer 7 - Pass Details

Date: 01 February 2023
Orbit: 478 x 657 km, 50.3° (Epoch: 26 March)

Event Time Altitude Azimuth Distance (km) Brightness Sun altitude
Rises 15:40:44 0° 273° (W) 2,801 11.2 8.4°
Reaches altitude 10° 15:42:57 10° 273° (W) 1,931 10.5 8.1°
Maximum altitude 15:47:24 89° 353° (N) 625 7.3 7.6°
Drops below altitude 10° 15:52:06 10° 94° (E) 2,031 9.3 7.0°
Sets 15:54:29 0° 95° (E) 2,959 10.1 6.7°
